• In Deutschland
  • Länderverzeichnis
  • Für 7 Tage
  • Wassertemperatur
  • Satellitenkarten
  • Wetterkarte
  • Widgets
  • user-avatar
    Anmelden

    Stündliche Wetter Winsen

    Heute, 20 Februar, Dienstag

    Zeit Temperatur Niederschläge Wind Luftdruck Luftfeuchtigkeit
    00:00 +1°C° 0 mm 1 m/S 764 mmHg 84%
    01:00 0°C° 0 mm 1 m/S 764 mmHg 86%
    02:00 0°C° 0 mm 1 m/S 764 mmHg 87%
    03:00 0°C° 0 mm 1 m/S 764 mmHg 87%
    04:00 0°C° 0 mm 1 m/S 764 mmHg 87%
    05:00 0°C° 0 mm 1 m/S 764 mmHg 88%
    06:00 0°C° 0 mm 1 m/S 764 mmHg 89%
    07:00 -1°C° 0 mm 1 m/S 764 mmHg 91%
    08:00 -1°C° 0 mm 2 m/S 764 mmHg 85%
    09:00 +1°C° 0 mm 2 m/S 764 mmHg 78%
    10:00 +1°C° 0 mm 3 m/S 764 mmHg 72%
    11:00 +2°C° 0 mm 3 m/S 764 mmHg 67%
    12:00 +2°C° 0 mm 3 m/S 765 mmHg 62%
    13:00 +3°C° 0 mm 3 m/S 765 mmHg 57%
    14:00 +3°C° 0 mm 3 m/S 765 mmHg 59%
    15:00 +3°C° 0 mm 3 m/S 765 mmHg 60%
    16:00 +3°C° 0 mm 3 m/S 765 mmHg 61%
    17:00 +1°C° 0 mm 3 m/S 765 mmHg 68%
    18:00 0°C° 0 mm 3 m/S 766 mmHg 75%
    19:00 -2°C° 0 mm 3 m/S 766 mmHg 82%
    20:00 -2°C° 0 mm 3 m/S 766 mmHg 83%
    21:00 -2°C° 0 mm 2 m/S 767 mmHg 84%
    22:00 -3°C° 0 mm 2 m/S 767 mmHg 85%
    23:00 -3°C° 0 mm 2 m/S 768 mmHg 85%

    Morgen, 21 Februar, Mittwoch

    Zeit Temperatur Niederschläge Wind Luftdruck Luftfeuchtigkeit
    00:00 -3°C° 0 mm 2 m/S 768 mmHg 85%
    01:00 -3°C° 0 mm 2 m/S 768 mmHg 85%
    02:00 -3°C° 0 mm 2 m/S 768 mmHg 85%
    03:00 -3°C° 0 mm 2 m/S 769 mmHg 85%
    04:00 -3°C° 0 mm 2 m/S 769 mmHg 85%
    05:00 -1°C° 0 mm 1 m/S 769 mmHg 84%
    06:00 -1°C° 0 mm 1 m/S 769 mmHg 84%
    07:00 -1°C° 0 mm 1 m/S 769 mmHg 83%
    08:00 0°C° 0 mm 1 m/S 769 mmHg 77%
    09:00 +1°C° 0 mm 1 m/S 769 mmHg 70%
    10:00 +1°C° 0 mm 2 m/S 769 mmHg 64%
    11:00 +2°C° 0 mm 2 m/S 769 mmHg 60%
    12:00 +3°C° 0 mm 2 m/S 769 mmHg 55%
    13:00 +4°C° 0 mm 2 m/S 769 mmHg 51%
    14:00 +4°C° 0 mm 2 m/S 769 mmHg 52%
    15:00 +3°C° 0 mm 2 m/S 769 mmHg 54%
    16:00 +3°C° 0 mm 2 m/S 768 mmHg 55%
    17:00 +2°C° 0 mm 2 m/S 769 mmHg 62%
    18:00 +1°C° 0 mm 2 m/S 769 mmHg 69%
    19:00 -2°C° 0 mm 2 m/S 769 mmHg 76%
    20:00 -2°C° 0 mm 2 m/S 769 mmHg 78%
    21:00 -2°C° 0 mm 2 m/S 769 mmHg 80%
    22:00 -1°C° 0 mm 1 m/S 770 mmHg 82%
    23:00 -1°C° 0 mm 1 m/S 769 mmHg 83%

    übermorgen, 22 Februar, Donnerstag

    Zeit Temperatur Niederschläge Wind Luftdruck Luftfeuchtigkeit
    00:00 -1°C° 0 mm 1 m/S 769 mmHg 83%
    01:00 -1°C° 0 mm 1 m/S 769 mmHg 84%
    02:00 -1°C° 0 mm 1 m/S 769 mmHg 83%
    03:00 -1°C° 0 mm 1 m/S 769 mmHg 83%
    04:00 -1°C° 0 mm 1 m/S 769 mmHg 82%
    05:00 -1°C° 0 mm 1 m/S 769 mmHg 81%
    06:00 -1°C° 0 mm 1 m/S 769 mmHg 80%
    07:00 -1°C° 0 mm 1 m/S 769 mmHg 79%
    08:00 0°C° 0 mm 1 m/S 770 mmHg 74%
    09:00 +1°C° 0 mm 1 m/S 770 mmHg 68%
    10:00 +2°C° 0 mm 1 m/S 770 mmHg 63%
    11:00 +2°C° 0 mm 2 m/S 770 mmHg 60%
    12:00 +3°C° 0 mm 2 m/S 770 mmHg 58%
    13:00 +4°C° 0 mm 2 m/S 769 mmHg 55%
    14:00 +3°C° 0 mm 2 m/S 769 mmHg 58%
    15:00 +2°C° 0 mm 3 m/S 769 mmHg 60%
    16:00 +2°C° 0 mm 3 m/S 769 mmHg 63%
    17:00 +1°C° 0 mm 3 m/S 769 mmHg 69%
    18:00 -1°C° 0 mm 3 m/S 769 mmHg 75%
    19:00 -2°C° 0 mm 3 m/S 769 mmHg 81%
    20:00 -2°C° 0 mm 3 m/S 770 mmHg 82%
    21:00 -4°C° 0 mm 3 m/S 770 mmHg 84%
    22:00 -3°C° 0 mm 2 m/S 770 mmHg 85%
    23:00 -3°C° 0 mm 2 m/S 770 mmHg 87%

    23 Februar, Freitag

    Zeit Temperatur Niederschläge Wind Luftdruck Luftfeuchtigkeit
    00:00 -4°C° 0 mm 2 m/S 770 mmHg 88%
    01:00 -4°C° 0 mm 2 m/S 770 mmHg 90%
    02:00 -4°C° 0 mm 2 m/S 770 mmHg 89%
    03:00 -4°C° 0 mm 2 m/S 770 mmHg 89%
    04:00 -4°C° 0 mm 2 m/S 770 mmHg 88%
    05:00 -4°C° 0 mm 2 m/S 770 mmHg 85%
    06:00 -5°C° 0 mm 3 m/S 771 mmHg 83%
    07:00 -5°C° 0 mm 3 m/S 771 mmHg 80%
    08:00 -4°C° 0 mm 3 m/S 771 mmHg 72%
    09:00 -2°C° 0 mm 3 m/S 771 mmHg 64%
    10:00 -3°C° 0 mm 4 m/S 772 mmHg 55%
    11:00 -2°C° 0 mm 4 m/S 772 mmHg 53%
    12:00 -1°C° 0 mm 4 m/S 772 mmHg 50%
    13:00 0°C° 0 mm 4 m/S 772 mmHg 48%
    14:00 0°C° 0 mm 4 m/S 771 mmHg 49%
    15:00 0°C° 0 mm 4 m/S 771 mmHg 50%
    16:00 0°C° 0 mm 4 m/S 771 mmHg 51%
    17:00 -1°C° 0 mm 4 m/S 772 mmHg 57%
    18:00 -2°C° 0 mm 4 m/S 772 mmHg 62%
    19:00 -4°C° 0 mm 4 m/S 772 mmHg 67%
    20:00 -4°C° 0 mm 4 m/S 772 mmHg 67%
    21:00 -4°C° 0 mm 4 m/S 773 mmHg 68%
    22:00 -4°C° 0 mm 4 m/S 773 mmHg 68%
    23:00 -4°C° 0 mm 4 m/S 773 mmHg 68%

    24 Februar, Samstag

    Zeit Temperatur Niederschläge Wind Luftdruck Luftfeuchtigkeit
    00:00 -5°C° 0 mm 4 m/S 773 mmHg 67%
    01:00 -5°C° 0 mm 4 m/S 773 mmHg 67%
    02:00 -5°C° 0 mm 4 m/S 774 mmHg 66%
    03:00 -5°C° 0 mm 4 m/S 774 mmHg 65%
    04:00 -5°C° 0 mm 4 m/S 774 mmHg 65%
    05:00 -5°C° 0 mm 4 m/S 774 mmHg 64%
    06:00 -5°C° 0 mm 4 m/S 774 mmHg 63%
    07:00 -6°C° 0 mm 5 m/S 774 mmHg 62%
    08:00 -5°C° 0 mm 5 m/S 775 mmHg 57%
    09:00 -5°C° 0 mm 5 m/S 775 mmHg 52%
    10:00 -4°C° 0 mm 6 m/S 775 mmHg 47%
    11:00 -3°C° 0 mm 6 m/S 775 mmHg 45%
    12:00 -2°C° 0 mm 6 m/S 775 mmHg 43%
    13:00 -2°C° 0 mm 6 m/S 775 mmHg 41%
    14:00 -2°C° 0 mm 6 m/S 775 mmHg 41%
    15:00 -2°C° 0 mm 6 m/S 775 mmHg 40%
    16:00 -2°C° 0 mm 6 m/S 775 mmHg 40%
    17:00 -3°C° 0 mm 6 m/S 775 mmHg 44%
    18:00 -4°C° 0 mm 5 m/S 775 mmHg 48%
    19:00 -5°C° 0 mm 5 m/S 775 mmHg 52%
    20:00 -6°C° 0 mm 5 m/S 775 mmHg 54%
    21:00 -6°C° 0 mm 5 m/S 776 mmHg 57%
    22:00 -6°C° 0 mm 5 m/S 776 mmHg 59%
    23:00 -6°C° 0 mm 5 m/S 776 mmHg 59%

    25 Februar, Sonntag

    Zeit Temperatur Niederschläge Wind Luftdruck Luftfeuchtigkeit
    00:00 -5°C° 0 mm 4 m/S 776 mmHg 59%
    01:00 -7°C° 0 mm 4 m/S 776 mmHg 59%
    02:00 -7°C° 0 mm 4 m/S 776 mmHg 59%
    03:00 -7°C° 0 mm 4 m/S 775 mmHg 58%
    04:00 -6°C° 0 mm 3 m/S 775 mmHg 58%
    05:00 -6°C° 0 mm 3 m/S 775 mmHg 58%
    06:00 -7°C° 0 mm 3 m/S 775 mmHg 58%
    07:00 -7°C° 0 mm 3 m/S 775 mmHg 59%
    08:00 -7°C° 0 mm 4 m/S 775 mmHg 55%
    09:00 -7°C° 0 mm 4 m/S 775 mmHg 52%
    10:00 -6°C° 0 mm 5 m/S 775 mmHg 49%
    11:00 -6°C° 0 mm 5 m/S 775 mmHg 46%
    12:00 -5°C° 0 mm 5 m/S 775 mmHg 43%
    13:00 -5°C° 0 mm 6 m/S 775 mmHg 39%
    14:00 -5°C° 0 mm 6 m/S 775 mmHg 38%
    15:00 -5°C° 0 mm 6 m/S 774 mmHg 36%
    16:00 -5°C° 0 mm 6 m/S 774 mmHg 35%
    17:00 -6°C° 0 mm 6 m/S 775 mmHg 38%
    18:00 -6°C° 0 mm 5 m/S 775 mmHg 41%
    19:00 -7°C° 0 mm 5 m/S 775 mmHg 45%
    20:00 -7°C° 0 mm 5 m/S 775 mmHg 47%
    21:00 -8°C° 0 mm 5 m/S 776 mmHg 49%
    22:00 -8°C° 0 mm 5 m/S 776 mmHg 50%
    23:00 -8°C° 0 mm 4 m/S 776 mmHg 52%
    Mehr zeigen